When you browse on this site, cookies collect data to enhance your experience and personalize the content and advertising you see.
Visit our Privacy Policy to learn more. By continuing to use the site, you agree to this use of cookies and data.
  • In Latvia
  • List of Countries
  • For 7 days
  • Water Temperature
  • Satellite Maps
  • Weather Map
  • Weather Widgets
  • user-avatar
    Login

    Hourly Weather Abovyan

    Today, 17 February, Sunday

    Time Temperature Precipitation Wind Pressure Humidity
    00:00 +1°C° 0.1 mm 2 mps 670 mmHg 68%
    01:00 -1°C° 0.1 mm 2 mps 670 mmHg 68%
    02:00 -1°C° 0.1 mm 2 mps 670 mmHg 68%
    03:00 -1°C° 0 mm 2 mps 669 mmHg 69%
    04:00 -2°C° 0 mm 2 mps 669 mmHg 69%
    05:00 -3°C° 0 mm 2 mps 669 mmHg 69%
    06:00 -3°C° 0 mm 2 mps 669 mmHg 69%
    07:00 -2°C° 0 mm 2 mps 670 mmHg 66%
    08:00 -2°C° 0 mm 2 mps 670 mmHg 63%
    09:00 +1°C° 0 mm 2 mps 670 mmHg 59%
    10:00 +1°C° 0 mm 3 mps 670 mmHg 55%
    11:00 +2°C° 0 mm 3 mps 670 mmHg 51%
    12:00 +3°C° 0 mm 4 mps 670 mmHg 47%
    13:00 +4°C° 0 mm 4 mps 670 mmHg 47%
    14:00 +4°C° 0 mm 4 mps 670 mmHg 47%
    15:00 +4°C° 0 mm 4 mps 670 mmHg 47%
    16:00 +3°C° 0 mm 4 mps 670 mmHg 49%
    17:00 +2°C° 0 mm 3 mps 670 mmHg 52%
    18:00 +2°C° 0 mm 2 mps 671 mmHg 54%
    19:00 +2°C° 0 mm 2 mps 671 mmHg 55%
    20:00 +1°C° 0 mm 2 mps 671 mmHg 57%
    21:00 -1°C° 0 mm 2 mps 671 mmHg 58%
    22:00 -1°C° 0 mm 2 mps 671 mmHg 58%
    23:00 -2°C° 0 mm 2 mps 671 mmHg 59%

    Tomorrow, 18 February, Monday

    Time Temperature Precipitation Wind Pressure Humidity
    00:00 -2°C° 0 mm 2 mps 671 mmHg 59%
    01:00 -1°C° 0 mm 1 mps 671 mmHg 59%
    02:00 -1°C° 0 mm 1 mps 671 mmHg 60%
    03:00 -1°C° 0 mm 1 mps 670 mmHg 60%
    04:00 -2°C° 0 mm 1 mps 670 mmHg 60%
    05:00 -2°C° 0 mm 1 mps 670 mmHg 60%
    06:00 -2°C° 0 mm 1 mps 670 mmHg 61%
    07:00 -1°C° 0 mm 1 mps 670 mmHg 59%
    08:00 0°C° 0 mm 1 mps 669 mmHg 57%
    09:00 +1°C° 0 mm 1 mps 669 mmHg 55%
    10:00 +2°C° 0 mm 2 mps 669 mmHg 53%
    11:00 +3°C° 0 mm 2 mps 668 mmHg 52%
    12:00 +4°C° 0 mm 2 mps 667 mmHg 50%
    13:00 +4°C° 0 mm 3 mps 667 mmHg 49%
    14:00 +4°C° 0 mm 3 mps 666 mmHg 49%
    15:00 +5°C° 0 mm 3 mps 666 mmHg 48%
    16:00 +4°C° 0 mm 3 mps 666 mmHg 50%
    17:00 +4°C° 0 mm 3 mps 666 mmHg 52%
    18:00 +3°C° 0 mm 3 mps 666 mmHg 55%
    19:00 +2°C° 0 mm 3 mps 666 mmHg 56%
    20:00 +1°C° 0 mm 3 mps 666 mmHg 58%
    21:00 +2°C° 0 mm 2 mps 666 mmHg 59%
    22:00 +1°C° 0 mm 2 mps 666 mmHg 60%
    23:00 +1°C° 0 mm 2 mps 666 mmHg 60%

    Day after tomorrow, 19 February, Tuesday

    Time Temperature Precipitation Wind Pressure Humidity
    00:00 -1°C° 0 mm 2 mps 666 mmHg 61%
    01:00 -1°C° 0 mm 2 mps 666 mmHg 62%
    02:00 -1°C° 0 mm 2 mps 666 mmHg 62%
    03:00 -2°C° 0 mm 2 mps 666 mmHg 63%
    04:00 -2°C° 0 mm 2 mps 666 mmHg 64%
    05:00 -2°C° 0 mm 2 mps 666 mmHg 64%
    06:00 -2°C° 0 mm 2 mps 667 mmHg 65%
    07:00 -2°C° 0 mm 2 mps 667 mmHg 63%
    08:00 -1°C° 0 mm 2 mps 668 mmHg 60%
    09:00 +1°C° 0 mm 2 mps 668 mmHg 58%
    10:00 +1°C° 0 mm 3 mps 669 mmHg 53%
    11:00 +2°C° 0 mm 3 mps 669 mmHg 48%
    12:00 +4°C° 0 mm 4 mps 669 mmHg 43%
    13:00 +4°C° 0 mm 4 mps 669 mmHg 42%
    14:00 +4°C° 0 mm 4 mps 670 mmHg 40%
    15:00 +4°C° 0 mm 4 mps 670 mmHg 39%
    16:00 +3°C° 0 mm 4 mps 670 mmHg 41%
    17:00 +2°C° 0 mm 3 mps 671 mmHg 43%
    18:00 0°C° 0 mm 3 mps 671 mmHg 45%
    19:00 -1°C° 0 mm 3 mps 672 mmHg 45%
    20:00 -1°C° 0 mm 2 mps 673 mmHg 46%
    21:00 -2°C° 0 mm 2 mps 673 mmHg 47%
    22:00 -2°C° 0 mm 2 mps 674 mmHg 47%
    23:00 -3°C° 0 mm 2 mps 674 mmHg 48%

    20 February, Wednesday

    Time Temperature Precipitation Wind Pressure Humidity
    00:00 -3°C° 0 mm 2 mps 674 mmHg 48%
    01:00 -4°C° 0 mm 2 mps 674 mmHg 48%
    02:00 -4°C° 0 mm 2 mps 674 mmHg 47%
    03:00 -4°C° 0 mm 2 mps 674 mmHg 47%
    04:00 -4°C° 0 mm 2 mps 674 mmHg 47%
    05:00 -4°C° 0 mm 2 mps 674 mmHg 46%
    06:00 -5°C° 0 mm 2 mps 674 mmHg 45%
    07:00 -1°C° 0 mm 1 mps 675 mmHg 44%
    08:00 0°C° 0 mm 1 mps 675 mmHg 43%
    09:00 +2°C° 0 mm 1 mps 676 mmHg 42%
    10:00 +3°C° 0 mm 1 mps 675 mmHg 40%
    11:00 +4°C° 0 mm 1 mps 675 mmHg 39%
    12:00 +4°C° 0 mm 2 mps 675 mmHg 38%
    13:00 +5°C° 0 mm 2 mps 674 mmHg 37%
    14:00 +5°C° 0 mm 2 mps 674 mmHg 37%
    15:00 +5°C° 0 mm 2 mps 674 mmHg 37%
    16:00 +4°C° 0 mm 2 mps 674 mmHg 37%
    17:00 +3°C° 0 mm 2 mps 674 mmHg 38%
    18:00 +2°C° 0 mm 1 mps 674 mmHg 38%
    19:00 +2°C° 0 mm 1 mps 674 mmHg 37%
    20:00 +1°C° 0 mm 1 mps 675 mmHg 36%
    21:00 -2°C° 0 mm 2 mps 675 mmHg 36%
    22:00 0°C° 0 mm 1 mps 675 mmHg 35%
    23:00 0°C° 0 mm 1 mps 675 mmHg 34%

    21 February, Thursday

    Time Temperature Precipitation Wind Pressure Humidity
    00:00 -1°C° 0 mm 1 mps 674 mmHg 34%
    01:00 -1°C° 0 mm 1 mps 674 mmHg 36%
    02:00 -1°C° 0 mm 1 mps 674 mmHg 37%
    03:00 -1°C° 0 mm 1 mps 674 mmHg 39%
    04:00 -2°C° 0 mm 1 mps 673 mmHg 41%
    05:00 -2°C° 0 mm 1 mps 673 mmHg 44%
    06:00 -2°C° 0 mm 1 mps 673 mmHg 46%
    07:00 -1°C° 0 mm 1 mps 673 mmHg 45%
    08:00 +1°C° 0 mm 1 mps 673 mmHg 44%
    09:00 +2°C° 0 mm 1 mps 674 mmHg 43%
    10:00 +3°C° 0 mm 1 mps 673 mmHg 40%
    11:00 +4°C° 0 mm 1 mps 673 mmHg 37%
    12:00 +5°C° 0 mm 1 mps 672 mmHg 34%
    13:00 +6°C° 0 mm 1 mps 672 mmHg 34%
    14:00 +6°C° 0 mm 1 mps 672 mmHg 34%
    15:00 +6°C° 0 mm 1 mps 671 mmHg 33%
    16:00 +5°C° 0 mm 1 mps 671 mmHg 33%
    17:00 +4°C° 0 mm 1 mps 671 mmHg 34%
    18:00 +3°C° 0 mm 1 mps 672 mmHg 34%
    19:00 +2°C° 0 mm 1 mps 672 mmHg 34%
    20:00 +2°C° 0 mm 1 mps 672 mmHg 35%
    21:00 +1°C° 0 mm 1 mps 673 mmHg 35%
    22:00 +1°C° 0 mm 1 mps 673 mmHg 38%
    23:00 0°C° 0 mm 1 mps 673 mmHg 40%

    22 February, Friday

    Time Temperature Precipitation Wind Pressure Humidity
    00:00 0°C° 0 mm 1 mps 673 mmHg 43%
    01:00 0°C° 0 mm 1 mps 673 mmHg 46%
    02:00 0°C° 0 mm 1 mps 672 mmHg 48%
    03:00 -1°C° 0 mm 1 mps 672 mmHg 51%
    04:00 -1°C° 0 mm 1 mps 672 mmHg 52%
    05:00 -1°C° 0 mm 1 mps 672 mmHg 53%
    06:00 -2°C° 0 mm 1 mps 672 mmHg 54%
    07:00 0°C° 0 mm 1 mps 672 mmHg 52%
    08:00 +1°C° 0 mm 1 mps 673 mmHg 51%
    09:00 +2°C° 0 mm 1 mps 673 mmHg 49%
    10:00 +3°C° 0 mm 1 mps 672 mmHg 47%
    11:00 +4°C° 0 mm 1 mps 672 mmHg 46%
    12:00 +4°C° 0 mm 1 mps 671 mmHg 45%
    13:00 +5°C° 0 mm 1 mps 671 mmHg 45%
    14:00 +4°C° 0 mm 2 mps 671 mmHg 45%
    15:00 +5°C° 0 mm 2 mps 670 mmHg 45%
    16:00 +4°C° 0 mm 2 mps 670 mmHg 46%
    17:00 +3°C° 0 mm 2 mps 671 mmHg 47%
    18:00 +2°C° 0 mm 2 mps 671 mmHg 49%
    19:00 +2°C° 0 mm 1 mps 671 mmHg 49%
    20:00 +2°C° 0 mm 1 mps 671 mmHg 50%
    21:00 +1°C° 0 mm 1 mps 672 mmHg 51%
    22:00 +1°C° 0 mm 1 mps 671 mmHg 52%
    23:00 0°C° 0 mm 1 mps 671 mmHg 53%
    Show more